[[{"header":{"parameterUnit":"m.s-1","parameterCategory":1,"la1":30.2991,"la2":30.254,"lo1":-89.0895,"lo2":-89.0444,"dy":0.0017,"dx":0.0017,"nx":28,"ny":28,"refTime":"2023-08-03T21:00:00:Z","depth":0,"parameterNumber":2,"parameterNumberName":"U-component_of_WINDS"},"data":[0,0,0,0,0,0,0,0,0,0,0,0,0,0,0,0,0,0,0,0,0,0,0,0,0,0,0,0,0,0,0,0,0,0,0,0,0,0,0,0,0,0,0,0,0,0,0,0,0,0,0,0,0,0,0,0,0,0,3.5194,3.5195,0,3.524,3.524,3.5241,3.5181,3.5179,3.5177,3.5175,3.5222,3.5225,3.5228,0,0,0,0,0,0,0,0,0,0,0,0,0,3.5055,3.5058,3.5194,3.5195,3.5196,3.524,3.524,3.5241,3.5181,3.5179,3.5176,3.5174,3.5221,3.5224,3.5228,0,0,0,0,0,0,0,0,0,0,0,0,0,3.5109,3.5059,3.5194,3.5171,3.517,3.5239,3.524,3.5241,3.5182,3.5179,3.5175,3.5172,3.5219,3.5224,3.5229,3.5324,0,0,3.5244,3.5246,0,0,0,0,0,0,0,0,3.5106,3.5115,3.5174,3.5173,3.5171,3.5201,3.5208,3.5269,3.5183,3.5177,3.5175,3.5171,3.5218,3.5222,3.5238,3.5326,3.5328,3.5244,3.5247,3.5249,3.5251,0,0,0,0,0,0,0,3.5103,3.5112,3.5212,3.5175,3.5173,3.5158,3.5162,3.5219,3.5215,3.5178,3.5173,3.5179,3.5216,3.5233,3.5239,3.5329,3.5244,3.5248,3.5251,3.5253,3.5493,3.5496,0,0,0,0,0,0,3.5102,3.511,3.5211,3.5214,3.513,3.5163,3.5168,3.5195,3.5214,3.5214,3.5182,3.5176,3.5227,3.5233,3.524,3.5349,3.5249,3.5254,3.5257,3.5489,3.5493,3.5497,0,0,0,0,0,0,3.5099,3.5111,3.5209,3.516,3.5172,3.5169,3.52,3.5198,3.5215,3.5218,3.5217,3.5201,3.5224,3.5233,3.5302,3.535,3.5256,3.5261,3.5485,3.5491,3.5495,3.557,0,0,0,0,0,0,3.5095,3.5111,3.5147,3.5162,3.5175,3.5271,3.5203,3.5201,3.5223,3.5216,3.5235,3.5235,3.5223,3.5295,3.5307,3.5355,3.5264,3.5481,3.5488,3.5494,3.5564,3.5577,3.5589,0,0,0,0,0,3.5091,3.5168,3.515,3.5162,3.522,3.5274,3.5281,3.5266,3.5227,3.5263,3.5265,3.5234,3.5344,3.5303,3.5316,3.5366,3.5478,3.5486,3.5493,3.5558,3.5575,3.5589,0,0,0,0,0,0,3.516,3.5169,3.5149,3.5234,3.5253,3.5264,3.5309,3.5285,3.5316,3.5308,3.5288,3.5292,3.5365,3.5373,3.5328,3.5457,3.5404,3.5415,3.5449,3.5465,3.5478,3.5473,3.5268,0,0,0,0,0,3.5185,3.5228,3.5234,3.5308,3.5319,3.5313,3.5336,3.5321,3.5341,3.5349,3.5356,3.5376,3.5415,3.5441,3.5477,3.5565,3.5566,3.5606,3.5618,3.5629,3.5638,3.5681,3.5698,3.5522,3.5522,3.5522,0,0,3.5237,3.5248,3.5277,3.5322,3.5336,3.538,3.532,3.537,3.5402,3.5357,3.5422,3.5427,3.5449,3.5527,3.5562,3.5535,3.5687,3.5639,3.5647,3.565,3.5691,3.5708,3.5722,3.5528,3.5527,3.5526,0,0,3.5354,3.5368,3.5429,3.5443,3.5464,3.5459,3.5474,3.5488,3.5489,3.5554,3.552,3.5558,3.5626,3.5641,3.5658,3.5778,3.575,3.5791,3.5857,3.59,3.5914,3.5926,3.5965,3.598,3.58,3.58,3.58,0,3.5417,3.5482,3.5464,3.5515,3.5535,3.5495,3.5555,3.5571,3.5603,3.5617,3.5587,3.5669,3.5681,3.576,3.5789,3.5805,3.5819,3.5788,3.5913,3.5925,3.5936,3.5974,3.5989,3.5805,3.5804,3.5804,3.5803,0,3.5555,3.5601,3.5648,3.5678,3.5703,3.576,3.5748,3.5776,3.576,3.5757,3.5822,3.5835,3.5871,3.5889,3.5874,3.5966,3.5948,3.5917,3.5863,3.5958,3.5992,3.6007,3.5811,3.581,3.5808,3.5807,0,0,3.5718,3.5735,3.5752,3.5764,3.5783,3.5818,3.5871,3.5906,3.5928,3.5952,3.5994,3.6051,3.6021,3.604,3.6026,3.6064,3.6155,3.6027,3.6027,3.6048,3.6252,3.6274,3.6291,3.6137,3.614,3.6142,3.6249,0,3.5832,3.5923,3.5907,3.5995,3.6035,3.5997,3.6043,3.606,3.6059,3.6092,3.6091,3.613,3.6089,3.61,3.6136,3.6136,3.6195,3.6128,3.6174,3.6176,3.6167,3.631,3.6334,3.6435,3.6263,3.6266,3.6267,0,3.5977,3.6004,3.6096,3.6105,3.6122,3.6163,3.6191,3.6225,3.6242,3.6238,3.6258,3.6237,3.6288,3.6235,3.6304,3.626,3.6277,3.628,3.6284,3.6285,3.6226,3.6312,3.6467,3.6481,3.6289,3.6287,3.6286,0,3.6082,3.6141,3.6202,3.6214,3.6228,3.6258,3.6265,3.6279,3.6299,3.6325,3.6337,3.6369,3.6386,3.641,3.6397,3.636,3.6467,3.6414,3.6464,3.6464,3.6487,3.6485,3.6643,3.6503,3.6503,3.6503,3.6502,0,3.6209,3.6266,3.6249,3.6287,3.6348,3.6329,3.6391,3.6394,3.6406,3.6442,3.6413,3.6448,3.643,3.6463,3.6454,3.651,3.6519,3.6516,3.6512,3.6517,3.6517,3.6527,3.6518,3.6507,3.6506,3.6505,3.6504,0,3.6336,3.6327,3.6391,3.6398,3.6401,3.6446,3.6452,3.6486,3.6483,3.6529,3.6539,3.6533,3.657,3.656,3.6602,3.6595,3.6666,3.6655,3.666,3.6656,3.6705,3.6699,3.6873,3.6893,3.6743,3.6745,3.6746,0,3.6416,3.6459,3.647,3.6492,3.6501,3.6537,3.6557,3.654,3.6562,3.6583,3.6614,3.6649,3.6675,3.6737,3.6736,3.6766,3.6754,3.6812,3.6758,3.6761,3.6751,3.6747,3.675,3.6822,3.6824,3.6826,3.6827,0,3.6559,3.6552,3.6582,3.661,3.6635,3.6656,3.6675,3.6695,3.6678,3.6705,3.6742,3.6762,3.6803,3.6837,3.6864,3.6871,3.6846,3.6844,3.6857,3.686,3.686,3.6858,3.6686,3.684,3.6838,3.6837,3.6837,3.6836,3.6663,3.6697,3.6709,3.6743,3.6755,3.6773,3.6804,3.6804,3.6834,3.6865,3.6853,3.6895,3.6909,3.6943,3.6953,3.6985,3.6962,3.6982,3.6986,3.699,3.6995,3.6857,3.699,3.699,3.699,3.6989,3.6989,0,3.6801,3.6806,3.6838,3.6863,3.689,3.6863,3.6882,3.6905,3.6942,3.6957,3.6983,3.7024,3.7056,3.7058,3.7087,3.7112,3.7101,3.712,3.7117,3.7118,3.7015,3.6999,3.7129,3.7129,3.7129,3.7129,3.7129,3.7129,3.6875,3.6931,3.6925,3.6986,3.6991,3.7031,3.7043,3.7059,3.707,3.7117,3.7143,3.7143,3.7152,3.7181,3.7209,3.7208,3.7219,3.7243,3.7237,3.714,3.7126,3.7113,3.7098,3.7246,3.7246,3.7338,3.7339,3.7339]},{"header":{"parameterUnit":"m.s-1","parameterCategory":1,"la1":30.2991,"la2":30.254,"lo1":-89.0895,"lo2":-89.0444,"dy":0.0017,"dx":0.0017,"nx":28,"ny":28,"refTime":"2023-08-03T21:00:00:Z","depth":0,"parameterNumber":3,"parameterNumberName":"V-component_of_WINDS"},"data":[0,0,0,0,0,0,0,0,0,0,0,0,0,0,0,0,0,0,0,0,0,0,0,0,0,0,0,0,0,0,0,0,0,0,0,0,0,0,0,0,0,0,0,0,0,0,0,0,0,0,0,0,0,0,0,0,0,0,6.0392,6.0392,0,6.0443,6.0444,6.0444,6.0375,6.0372,6.037,6.0368,6.0415,6.0418,6.0421,0,0,0,0,0,0,0,0,0,0,0,0,0,6.0227,6.0231,6.0392,6.0392,6.0393,6.0443,6.0444,6.0444,6.0375,6.0372,6.0369,6.0367,6.0413,6.0418,6.0422,0,0,0,0,0,0,0,0,0,0,0,0,0,6.0291,6.0232,6.0392,6.0365,6.0363,6.0443,6.0444,6.0445,6.0376,6.0372,6.0369,6.0365,6.0412,6.0417,6.0422,6.0529,0,0,6.0439,6.0441,0,0,0,0,0,0,0,0,6.0287,6.0297,6.0368,6.0367,6.0365,6.0399,6.0403,6.0473,6.0377,6.0371,6.0368,6.0363,6.0412,6.0417,6.0435,6.0532,6.0534,6.0439,6.0442,6.0445,6.0446,0,0,0,0,0,0,0,6.0283,6.0294,6.0412,6.0369,6.0367,6.0348,6.0353,6.0416,6.0411,6.0371,6.0366,6.0374,6.041,6.043,6.0435,6.0534,6.0439,6.0444,6.0447,6.0449,6.072,6.0723,0,0,0,0,0,0,6.0283,6.0291,6.041,6.0413,6.0316,6.0354,6.0359,6.0392,6.0411,6.041,6.0377,6.037,6.0422,6.0429,6.0437,6.0562,6.0445,6.045,6.0453,6.0716,6.072,6.0725,0,0,0,0,0,0,6.0279,6.0294,6.0408,6.0351,6.0364,6.0361,6.0397,6.0395,6.0414,6.0415,6.0413,6.0398,6.042,6.0429,6.0507,6.0562,6.0452,6.0457,6.0711,6.0717,6.0723,6.0814,0,0,0,0,0,0,6.0275,6.0293,6.0335,6.0352,6.0367,6.048,6.0401,6.0398,6.0424,6.0416,6.0434,6.0433,6.0418,6.0499,6.0512,6.0568,6.0461,6.0706,6.0714,6.0721,6.0806,6.0822,6.0836,0,0,0,0,0,6.0269,6.0358,6.0338,6.0352,6.042,6.0483,6.0491,6.0473,6.0429,6.047,6.047,6.0433,6.0555,6.0508,6.0522,6.058,6.0702,6.0711,6.072,6.0799,6.0819,6.0836,0,0,0,0,0,0,6.0345,6.036,6.0337,6.0435,6.0459,6.0471,6.0522,6.0495,6.053,6.0521,6.0494,6.0499,6.0582,6.0589,6.0536,6.0683,6.0621,6.0633,6.0676,6.0695,6.071,6.0706,6.0465,0,0,0,0,0,6.0374,6.0425,6.0434,6.0519,6.0532,6.0526,6.0552,6.0536,6.0559,6.0568,6.0574,6.0596,6.0638,6.0667,6.0707,6.0807,6.0809,6.0853,6.0869,6.0881,6.0891,6.0943,6.0962,6.0754,6.0754,6.0754,0,0,6.0432,6.0446,6.048,6.0535,6.0551,6.0603,6.0534,6.0593,6.063,6.0576,6.065,6.0655,6.0678,6.0767,6.0806,6.0775,6.095,6.0893,6.0903,6.0906,6.0954,6.0974,6.0991,6.076,6.0759,6.0758,0,0,6.0565,6.0582,6.0654,6.0672,6.0699,6.0694,6.0711,6.0728,6.073,6.0805,6.0765,6.0808,6.0883,6.09,6.0919,6.1059,6.1025,6.1072,6.1151,6.1202,6.1218,6.1232,6.128,6.1298,6.1083,6.1083,6.1083,0,6.0633,6.0712,6.0694,6.0755,6.0779,6.0735,6.0806,6.0824,6.0861,6.0878,6.0843,6.0936,6.0948,6.104,6.1074,6.1091,6.1108,6.1069,6.1218,6.1232,6.1245,6.129,6.1309,6.1089,6.1088,6.1087,6.1087,0,6.0794,6.0849,6.0904,6.0943,6.0974,6.104,6.1029,6.1062,6.1043,6.1042,6.1117,6.113,6.1171,6.1192,6.1174,6.1281,6.126,6.1222,6.1158,6.1271,6.1313,6.133,6.1096,6.1094,6.1093,6.1091,0,0,6.0975,6.1004,6.1024,6.1041,6.1067,6.1108,6.1171,6.1213,6.1241,6.1268,6.1319,6.1384,6.1349,6.137,6.1353,6.1398,6.1506,6.1354,6.1354,6.138,6.1623,6.165,6.1671,6.1484,6.1488,6.149,6.162,0,6.1106,6.1218,6.1203,6.1309,6.1358,6.1317,6.1372,6.1393,6.1393,6.1433,6.1432,6.1478,6.1429,6.1441,6.1484,6.1484,6.1554,6.1474,6.1529,6.1531,6.1523,6.1693,6.1722,6.1844,6.1637,6.164,6.1642,0,6.1274,6.1309,6.1421,6.1439,6.1459,6.1509,6.1546,6.1586,6.1608,6.1605,6.1629,6.1604,6.1665,6.1602,6.1684,6.1631,6.1652,6.1656,6.166,6.1663,6.1592,6.1699,6.1883,6.19,6.1668,6.1666,6.1664,0,6.1392,6.1468,6.1544,6.156,6.1583,6.1619,6.163,6.1649,6.1675,6.1706,6.1722,6.1761,6.1781,6.181,6.1795,6.1751,6.188,6.1816,6.1877,6.1877,6.1904,6.1902,6.2092,6.1921,6.1921,6.1921,6.192,0,6.1539,6.1609,6.1597,6.1644,6.172,6.1702,6.1777,6.1782,6.1799,6.1845,6.1811,6.1854,6.1833,6.1874,6.1863,6.1932,6.1942,6.1939,6.1935,6.1941,6.1941,6.1953,6.1944,6.1926,6.1924,6.1924,6.1923,0,6.1683,6.1679,6.1759,6.1775,6.1781,6.1836,6.1849,6.1891,6.1889,6.1947,6.196,6.1956,6.2002,6.1991,6.2041,6.2034,6.212,6.2106,6.2113,6.2109,6.217,6.2164,6.2373,6.2399,6.2213,6.2215,6.2217,0,6.1777,6.1829,6.1852,6.1881,6.1895,6.1942,6.1969,6.1953,6.1982,6.2011,6.205,6.2094,6.2128,6.2204,6.2204,6.2242,6.2227,6.2298,6.2232,6.2237,6.2226,6.2223,6.2227,6.231,6.2313,6.2314,6.2316,0,6.1942,6.1937,6.1979,6.2019,6.2053,6.2084,6.2111,6.2136,6.2122,6.2155,6.2204,6.223,6.2282,6.2325,6.2361,6.2369,6.234,6.2337,6.2353,6.2358,6.236,6.2358,6.2147,6.2331,6.233,6.2329,6.2328,6.2327,6.2062,6.2107,6.213,6.2176,6.2196,6.2222,6.2263,6.2267,6.2307,6.2349,6.2337,6.2391,6.2411,6.2455,6.2469,6.251,6.2482,6.2506,6.2511,6.2517,6.2524,6.2355,6.2516,6.2516,6.2515,6.2515,6.2514,0,6.2224,6.2237,6.2281,6.2321,6.2357,6.2329,6.2357,6.2389,6.2438,6.246,6.2495,6.2549,6.2591,6.2596,6.2634,6.2666,6.2653,6.2677,6.2673,6.2675,6.2547,6.2528,6.2686,6.2686,6.2686,6.2686,6.2686,6.2686,6.2312,6.2386,6.2384,6.2466,6.2478,6.2533,6.2551,6.2575,6.2592,6.2656,6.2691,6.2694,6.2709,6.2748,6.2785,6.2785,6.28,6.2828,6.2823,6.2702,6.2685,6.2668,6.2651,6.2832,6.2832,6.2948,6.2949,6.295]}]]